Zurück zum Katalog

SL-16 DEB

AktivLEO
NORAD 25254·DEBRIS·🇷🇺 Russia

Gestartet Sep 16, 1993 von Baikonur Cosmodrome

Loading…

Nächste Überflüge (nächste 24 Stunden)

TLE

AktuellSource: Space-Track

Epoche: Sep 14, 2026, 06:42 UTC

1 25254U 93059H   26257.27978837  .00000169  00000-0  95002-4 0  9993
2 25254  70.9868 198.2576 0016310 200.2946 310.2414 14.23746972510264

Verfolge SL-16 DEB in Echtzeit mit AllMySat

Download on the App Store